Sigfox identifier Datetime Temperature Humidity SNR
003BC01B 2018-10-09 08:31:46 21.2 39 14.3
003BC01B 2018-10-09 07:31:39 21.2 39 14.2
003BC01B 2018-10-09 06:31:33 21.2 39 14
003BC01B 2018-10-09 05:31:27 21.2 38 14.5
003BC01B 2018-10-09 01:31:00 21.2 38 13.6
003BC01B 2018-10-09 00:30:56 21.2 38 13.4
003BC01B 2018-10-08 23:30:50 21.2 38 13.3
003BC01B 2018-10-08 22:30:45 21.2 37 13.2
003BC01B 2018-10-08 21:30:38 21.2 37 13
003BC01B 2018-10-08 20:30:33 21.2 37 13.8
003BC01B 2018-10-08 19:30:25 21.2 37 14.6
003BC01B 2018-10-08 18:30:19 21.2 37 14.4
003BC01B 2018-10-08 17:30:11 21.1 37 14.4
003BC01B 2018-10-08 16:30:02 21 37 14.3
003BC01B 2018-10-08 15:29:56 21 37 14.4
003BC01B 2018-10-08 14:29:50 21 36 14.6
003BC01B 2018-10-08 12:29:44 20.7 36 14.9
003BC01B 2018-10-08 11:29:35 20.7 35 14.8
003BC01B 2018-10-08 10:29:32 20.7 35 14.8
003BC01B 2018-10-08 09:29:25 20.5 35 14.9
003BC01B 2018-10-08 08:29:17 20.5 35 14.5
003BC01B 2018-10-08 07:29:14 20.5 35 14.5
003BC01B 2018-10-08 06:29:07 20.5 36 14.6
003BC01B 2018-10-08 05:28:59 20.5 36 14.7
003BC01B 2018-10-08 04:28:54 20.5 36 14.7
003BC01B 2018-10-08 03:28:49 20.5 36 14.6
003BC01B 2018-10-08 02:28:43 20.5 37 14.7
003BC01B 2018-10-08 01:28:39 20.7 37 14.7
003BC01B 2018-10-08 00:28:32 20.7 37 14.6
003BC01B 2018-10-07 23:28:26 20.7 38 14.5
003BC01B 2018-10-07 22:28:19 20.7 38 14.4
003BC01B 2018-10-07 21:28:14 20.7 38 14.5
003BC01B 2018-10-07 20:28:06 20.7 39 14.6
003BC01B 2018-10-07 19:28:01 20.7 39 14.9
003BC01B 2018-10-07 18:27:56 20.7 39 14.2
003BC01B 2018-10-07 17:27:50 20.7 39 13.3
003BC01B 2018-10-07 16:27:45 20.7 39 13.4
003BC01B 2018-10-07 15:27:38 20.7 39 13.4
003BC01B 2018-10-07 14:27:33 20.7 39 13.6
003BC01B 2018-10-07 13:27:24 20.7 39 13.6
003BC01B 2018-10-07 12:27:15 20.7 39 13.9
003BC01B 2018-10-07 11:27:06 20.7 39 14.1
003BC01B 2018-10-07 10:27:00 20.7 39 14.4
003BC01B 2018-10-07 09:26:52 20.7 39 14.4
003BC01B 2018-10-07 08:26:43 20.7 39 14.4
003BC01B 2018-10-07 07:26:36 20.7 40 14.4
003BC01B 2018-10-07 06:26:28 20.7 40 14.5
003BC01B 2018-10-07 05:26:19 20.8 40 14.7
003BC01B 2018-10-07 04:26:13 20.9 40 14.6
003BC01B 2018-10-07 03:26:03 20.9 40 14.7
003BC01B 2018-10-07 02:25:56 21 40 14.4
003BC01B 2018-10-07 01:25:48 21 40 14.4
003BC01B 2018-10-07 00:25:42 21 40 14.5
003BC01B 2018-10-06 23:25:34 21 40 14.5
003BC01B 2018-10-06 22:25:31 21 40 14.9
003BC01B 2018-10-06 21:25:22 21 40 15
003BC01B 2018-10-06 20:25:19 21 40 15
003BC01B 2018-10-06 19:25:09 21 40 15.1
003BC01B 2018-10-06 18:25:03 21 41 14.9
003BC01B 2018-10-06 17:24:56 21 41 15
003BC01B 2018-10-06 16:24:50 21 41 15.1
003BC01B 2018-10-06 15:24:42 21 41 15.1
003BC01B 2018-10-06 14:24:34 21 41 15.3
003BC01B 2018-10-06 13:24:27 21 41 15.2
003BC01B 2018-10-06 12:24:21 21 41 15.3
003BC01B 2018-10-06 11:24:15 21 41 14.9
003BC01B 2018-10-06 10:24:05 21 41 14.3
003BC01B 2018-10-06 09:23:58 21 41 14.1
003BC01B 2018-10-06 08:23:50 21 41 14.2
003BC01B 2018-10-06 07:23:45 21.1 42 14.3
003BC01B 2018-10-06 06:23:40 21.1 42 14.5
003BC01B 2018-10-06 05:23:31 21.2 42 14.7
003BC01B 2018-10-06 04:23:27 21.2 43 14.2
003BC01B 2018-10-06 03:23:25 21.2 43 14.3
003BC01B 2018-10-06 02:23:20 21.2 43 14.4
003BC01B 2018-10-06 01:23:12 21.2 43 14.6
003BC01B 2018-10-06 00:23:07 21.4 44 14.7
003BC01B 2018-10-05 23:22:57 21.4 44 14.8
003BC01B 2018-10-05 22:22:49 21.4 44 15.3
003BC01B 2018-10-05 21:22:39 21.4 45 14
003BC01B 2018-10-05 20:22:31 21.5 45 14.4
003BC01B 2018-10-05 19:22:25 21.6 46 14.9
003BC01B 2018-10-05 18:22:18 21.6 46 14
003BC01B 2018-10-05 17:22:09 21.6 47 14.2
003BC01B 2018-10-05 16:21:58 21.6 48 13.2
003BC01B 2018-10-05 15:21:49 21.8 56 0